User: anonymous   Login
Location: Bronschhofen
(47.4788°N, 9.0353°E)
Time: 08:38:15
(UTC+00:00)
Language:

S3M - Orbit

View from above orbital plane
View from above orbital plane
View from above satellite
View from above satellite

Ground track
Ground track

The orbit data is extracted from the following two-line orbital elements,

1 12508U 81053B   22224.42850629  .00000047  00000-0  32947-4 0  9991
2 12508  82.9596 188.7712 0037109 344.5840  15.4183 13.76402108 74150
Epoch (UTC): 12 August 2022 10:17:02
Eccentricity: 0.0037109
inclination: 82.9596°
perigee height: 949 km
apogee height: 1004 km
right ascension of ascending node: 188.7712°
argument of perigee: 344.5840°
revolutions per day: 13.76402108
mean anomaly at epoch: 15.4183°
orbit number at epoch: 7415

The dashed part of the orbit path shows where the satellite is in the earth's shadow,  

DLR